Regional Weather Roundup
Issued by NWS

Home | Current Version | Previous Version | Text Only | Print | Product List | Glossary On
Versions: 1 2 3 4 5 6 7 8 9 10 11 12 13 14 15 16 17 18 19 20 21 22 23 24 25 26 27 28 29 30 31 32 33 34 35 36 37 38 39 40 41 42 43 44 45 46 47 48 49 50
000
ASUS43 KMPX 251910
RWRMN
WEATHER ROUNDUP FOR MINNESOTA
NATIONAL WEATHER SERVICE TWIN CITIES/CHANHASSEN MN
200 PM CDT SUN JUN 25 2017


NOTE: "FAIR" INDICATES FEW OR NO CLOUDS BELOW 12,000 FEET WITH NO
SIGNIFICANT WEATHER AND/OR OBSTRUCTIONS TO VISIBILITY. N/A MEANS
CURRENT SKY AND/OR WEATHER CONDITIONS ARE NOT AVAILABLE.

MNZ060>063-068>070-252000-
   Twin Cities Metro

CITY           SKY/WX    TMP DP  RH WIND       PRES   REMARKS
TWIN CITIES    PTSUNNY   67  46  47 W18G28    30.14F
ST PAUL        CLOUDY    64  45  49 NW14G28   30.14F
CRYSTAL        MOSUNNY   66  42  41 W20G28    30.14S
BLAINE         MOSUNNY   66  45  45 NW17      30.14S
LAKEVILLE      MOSUNNY   64  48  55 NW16G25   30.15F
EDEN PRAIRIE   MOSUNNY   68  45  43 NW18G24   30.14F
SOUTH ST PAUL  PTSUNNY   65  44  47 NW10G30   30.14F
LAKE ELMO      CLOUDY    63  50  63 NW10      30.14F
$$
MNZ001>005-007-008-013>017-022>024-027-028-252000-
   Northwest Minnesota

CITY           SKY/WX    TMP DP  RH WIND       PRES   REMARKS
BEMIDJI        PTSUNNY   61  40  46 NW15      30.16S
HALLOCK        MOSUNNY   63  43  48 NW12G21   30.20F
ROSEAU         MOSUNNY   59  48  67 W15       30.17F
WARROAD        LGT RAIN  52  48  87 N3        30.19S
THIEF RVR FALL PTSUNNY   61  43  51 NW13      30.20F
CROOKSTON      MOSUNNY   63  45  51 N13G21    30.20F
FOSSTON        PTSUNNY   61  43  51 NW16      30.20S
DETROIT LAKES  MOSUNNY   63  41  45 NW16G22   30.21F
MOORHEAD       SUNNY     66  43  42 NW14      30.21F
PARK RAPIDS    PTSUNNY   64  39  39 NW18G28   30.17F
MAHNOMEN       FAIR      60  41  49 NW16      30.19F
$$
MNZ006-009>011-018-025>026-252000-
   North Central Minnesota

CITY           SKY/WX    TMP DP  RH WIND       PRES   REMARKS
BAUDETTE       PTSUNNY   59  45  59 N14       30.15F
FLAG ISLAND    CLOUDY    54  45  71 NW7       30.15F
INTL FALLS     CLOUDY    59  43  55 N10G22    30.12S
WASKISH        RAIN      54  46  76 CALM      30.16F
BIG FORK       LGT RAIN  52  48  87 CALM      30.14R
LONGVILLE      MOSUNNY   61  43  51 W15G23    30.15S
GRAND RAPIDS   CLOUDY    58  45  62 NW18G24   30.14S
CRANE LAKE     LGT RAIN  48  48 100 N9        30.13R
ORR            CLOUDY    52  45  76 NW6       30.10S
COOK           CLOUDY    54  48  82 N6        30.12S
WALKER         CLOUDY    59  42  52 NW14      30.15F
$$
MNZ012-019>021-037-252000-
   Northeast Minnesota

CITY           SKY/WX    TMP DP  RH WIND       PRES   REMARKS
DULUTH         PTSUNNY   56  45  66 N16G31    30.07S
ELY            RAIN      48  48 100 NW7G20    30.07R
HIBBING        CLOUDY    57  44  62 N21G30    30.10S
EVELETH        CLOUDY    53  44  71 N9G17     30.11S
DULUTH HARBOR  PTSUNNY   54  52  94 NW14G22   30.09S
TWO HARBORS    CLOUDY    57  52  82 NW9G17    30.04S
SILVER BAY     LGT RAIN  54  50  87 NW5       30.03S
GRAND MARAIS     N/A     50  45  83 NE8       30.04R
G MARAIS ARPRT LGT RAIN  48  45  87 E6        30.05R
$$
MNZ029>031-032-039>041-046>048-054>057-064-252000-
   West Central Minnesota

CITY           SKY/WX    TMP DP  RH WIND       PRES   REMARKS
FERGUS FALLS   PTSUNNY   63  45  51 NW14G20   30.19F
WHEATON        CLOUDY    66  43  42 NW16      30.23F
MORRIS         MOSUNNY   66  43  42 N15G21    30.21F
ALEXANDRIA     MOSUNNY   65  42  43 NW17G29   30.21F
ELBOW LAKE     CLOUDY    61  43  52 NW13G20   30.22F
WADENA         PTSUNNY   61  43  51 NW13G23   30.19S
GLENWOOD       MOSUNNY   64  43  45 NW13G26   30.21F
APPLETON       MOSUNNY   66  39  37 NW14G23   30.22F
BENSON         MOSUNNY   68  39  34 N24       30.23F
ORTONVILLE     MOSUNNY   66  43  42 W13G18    30.23F
MADISON        MOSUNNY   68  45  42 NW16G25   30.23F
WILLMAR        FAIR      66  43  42 NW17G29   30.22F
$$
MNZ033>034-036-042>043-049>051-058-059-252000-
   Central Minnesota

CITY           SKY/WX    TMP DP  RH WIND       PRES   REMARKS
ST CLOUD       MOSUNNY   67  42  40 NW20G25   30.15F
SAUK CENTRE    MOCLDY    64  41  43 NW20G25   30.19F
PAYNESVILLE    MOSUNNY   64  38  38 NW16G25   30.20S
AITKIN         MOSUNNY   61  45  55 NW10G20   30.12S
PINE RIVER     MOSUNNY   61  45  55 NW10G20   30.18F
BRAINERD       PTSUNNY   63  41  44 W13G22    30.16S
STAPLES        PTSUNNY   61  37  41 NW15G22   30.18S
LONG PRAIRIE   PTSUNNY   63  41  45 W12G24    30.19F
LITTLE FALLS   CLOUDY    63  37  39 NW12G18   30.17S
LITCHFIELD     MOSUNNY   66  45  45 NW18G24   30.19S
BUFFALO        MOSUNNY   66  41  39 NW13G20   30.17S
MAPLE LAKE     PTSUNNY   66  46  48 NW12G18   30.17F
HUTCHINSON     PTSUNNY   66  45  45 NW18G25   30.20S
$$
MNZ037-044-045-052-053-252000-
   East Central Minnesota

CITY           SKY/WX    TMP DP  RH WIND       PRES   REMARKS
PRINCETON      PTSUNNY   64  43  45 NW14G21   30.15S
MORA           MOSUNNY   61  43  51 NW18G24   30.14S
CAMBRIDGE      MOSUNNY   66  46  48 NW14G23   30.11F
RUSH CITY      PTSUNNY   61  46  59 NW8G20    30.12F
MOOSE LAKE     PTSUNNY   61  46  59 NW9G18    30.09S
HINCKLEY       MOCLDY    63  46  55 NW10G18   30.11F
CLOQUET        PTSUNNY   59  45  58 NW16G26   30.09F
MCGREGOR       PTSUNNY   57  46  67 NW16G24   30.13S
$$
MNZ071>073-080-081-089-090-097-098-252000-
   Southwest Minnesota

CITY           SKY/WX    TMP DP  RH WIND       PRES   REMARKS
MONTEVIDEO     MOSUNNY   68  43  40 N15G24    30.23F
GRANITE FALLS    N/A     68  43  40 NW18G26   30.25S
CANBY          MOSUNNY   69  41  36 W13G21    30.26S
MARSHALL       MOSUNNY   66  42  41 NW24      30.23F
REDWOOD FALLS  MOSUNNY   66  40  38 NW16G30   30.21F
OLIVIA         MOSUNNY   66  43  42 NW17G25   30.20F
PIPESTONE      SUNNY     66  41  39 N14G23    30.26F
WINDOM         MOSUNNY   66  41  39 NW17G24   30.23S
WORTHINGTON    MOSUNNY   66  43  43 NW16G24   30.25F
JACKSON        MOSUNNY   64  39  39 NW17G25   30.24S
TRACY          MOSUNNY   66  43  43 NW17      30.25S
SLAYTON        MOSUNNY   63  42  45 NW16G24   30.26S
$$
MNZ065>067-074>077-082>085-091>093-252000-
   South Central Minnesota

CITY           SKY/WX    TMP DP  RH WIND       PRES   REMARKS
MANKATO        PTSUNNY   66  43  43 NW20G28   30.19S
NEW ULM        MOSUNNY   66  39  37 NW21G30   30.20S
ST JAMES       SUNNY     68  39  34 W17G24    30.22S
FAIRMONT       MOSUNNY   67  42  40 NW21G26   30.22S
GLENCOE        PTSUNNY   66  47  50 NW17      30.17F
FARIBAULT      MOSUNNY   64  46  52 W16       30.17S
OWATONNA       PTSUNNY   64  48  55 NW17G26   30.17F
WASECA         PTSUNNY   63  45  51 NW15G24   30.20S
ALBERT LEA     PTSUNNY   64  45  48 W10G20    30.18F
$$
MNZ078>079-086>088-094>096-252000-
   Southeast Minnesota

CITY           SKY/WX    TMP DP  RH WIND       PRES   REMARKS
ROCHESTER      CLOUDY    60  50  69 NW16      30.17S
RED WING       CLOUDY    63  46  55 W9        30.12F
STANTON        CLOUDY    63  49  59 W15       30.15S
DODGE CENTER   PTSUNNY   61  48  63 NW17G23   30.17S
WINONA         CLOUDY    61  52  72 NW12G22   30.14S
AUSTIN         CLOUDY    63  46  55 W16       30.18S
PRESTON        CLOUDY    58  49  72 NW14      30.17S
$$
ABBREVIATIONS USED IN REMARKS
   TC - TEMPERATURES IN CELSIUS
  WCI - WIND CHILL INDEX
   HX - HEAT INDEX
  VSB - VISIBILITY
$$



USA.gov is the U.S. government's official web portal to all federal, state and local government web resources and services.